Simultaneous Nadir Overpasses (SNOs) Predictions

Prediction of SNOs between GOES-14 and NOAA-20 Satellite Orbit:

Table of predicted SNOs for the next 14.0 days since TLE Epoch: 4/2/2022
Index Date Time (GOES-14) GOES-14 Lat,Lon NOAA-20 Lat,Lon Distance(km) Time Diff (sec)
1 04/02/2022 08:20:41 0.12,-104.52 -0.08,-103.51 114.41 80
2 04/03/2022 20:42:38 -0.12,-104.48 -1.11,-108.82 494.45 80
3 04/04/2022 20:21:15 -0.12,-104.47 -0.07,-104.29 20.93 80
4 04/07/2022 08:24:20 0.12,-104.51 0.24,-105.03 59.38 80
5 04/08/2022 08:08:16 0.13,-104.52 -0.80,-100.51 457.81 80
6 04/09/2022 20:30:12 -0.12,-104.49 -0.44,-105.80 149.91 80
7 04/10/2022 20:08:49 -0.13,-104.48 0.61,-101.27 365.51 80
8 04/12/2022 08:30:37 0.12,-104.49 0.60,-106.54 233.51 80
9 04/13/2022 08:14:34 0.13,-104.50 -0.45,-102.01 283.86 80
10 04/14/2022 20:36:30 -0.12,-104.50 -0.78,-107.31 320.37 80
11 04/15/2022 20:15:07 -0.13,-104.49 0.27,-102.78 195.17 80
